Camden, SC

5:01 PM EDT on March 23, 2017 (GMT -0400)
Woodward

Weather History for KCDN - March, 2013

Change the Weather History Date:

Saturday, March 30, 2013

  Actual Average (KSSC) Record (KSSC)
Temperature  
Mean Temperature 58 °F -  
Max Temperature 69 °F 69 °F 86 °F (2012)
Min Temperature 48 °F 45 °F 37 °F (2003)
Degree Days  
Heating Degree Days 6    
Growing Degree Days 8 (Base 50)    
Moisture  
Dew Point 42 °F    
Average Humidity 58    
Maximum Humidity 77    
Minimum Humidity 35    
Precipitation  
Precipitation 0.00 in - - ()
Sea Level Pressure  
Sea Level Pressure 30.17 in    
Wind  
Wind Speed 3 mph (East)    
Max Wind Speed 10 mph    
Max Gust Speed -    
Visibility 10 miles    
Events      
Averages and records for this station are not official NWS values.
T = Trace of Precipitation, MM = Missing Value Source: NWS Daily Summary

Daily Weather History Graph

Daily Weather History Graph

Search for Another Location

Airport or City:

Trip Planner

Search our weather history database for the weather conditions in past years. The results will help you decide how hot, cold, wet, or windy it might be!

Date:

Astronomy

Mar. 30, 2013 Rise Set
Actual Time 7:11 AM EDT 7:41 PM EDT
Civil Twilight 6:46 AM EDT 8:07 PM EDT
Nautical Twilight 6:17 AM EDT 8:36 PM EDT
Astronomical Twilight 5:46 AM EDT 9:06 PM EDT
Moon 11:36 PM EDT (3/30) 9:15 AM EDT (3/30)
Length of Visible Light 13h 20m
Length of Day
12h 29m
Waning Gibbous, 86% of the Moon is Illuminated
Mar 30
Waning Gibbous
Apr 3
Last Quarter
Apr 10
New
Apr 18
First Quarter
Apr 25
Full

Hourly Weather History & Observations

Time (EDT) Temp. Dew Point Humidity Pressure Visibility Wind Dir Wind Speed Gust Speed Precip Events Conditions
12:15 AM 55.4 °F 35.6 °F 47% 30.24 in 10.0 mi Calm Calm - 0.00 in   Clear
12:35 AM 53.6 °F 37.4 °F 54% 30.24 in 10.0 mi Calm Calm - 0.00 in   Clear
12:55 AM 53.6 °F 35.6 °F 51% 30.23 in 10.0 mi Calm Calm - 0.00 in   Clear
1:15 AM 53.6 °F 37.4 °F 54% 30.23 in 10.0 mi Calm Calm - 0.00 in   Partly Cloudy
1:55 AM 53.6 °F 37.4 °F 54% 30.23 in 10.0 mi South 4.6 mph - 0.00 in   Partly Cloudy
2:35 AM 53.6 °F 37.4 °F 54% 30.22 in 10.0 mi Calm Calm - 0.00 in   Mostly Cloudy
2:55 AM 53.6 °F 37.4 °F 54% 30.23 in 10.0 mi Calm Calm - 0.00 in   Mostly Cloudy
3:15 AM 51.8 °F 37.4 °F 58% 30.23 in 10.0 mi South 3.5 mph - 0.00 in   Clear
3:35 AM 51.8 °F 37.4 °F 58% 30.23 in 10.0 mi Calm Calm - 0.00 in   Partly Cloudy
3:55 AM 51.8 °F 37.4 °F 58% 30.22 in 10.0 mi Calm Calm - 0.00 in   Scattered Clouds
4:15 AM 51.8 °F 39.2 °F 62% 30.22 in 10.0 mi Calm Calm - 0.00 in   Scattered Clouds
4:35 AM 50.0 °F 41.0 °F 71% 30.23 in 10.0 mi Calm Calm - 0.00 in   Scattered Clouds
4:55 AM 50.0 °F 39.2 °F 66% 30.22 in 10.0 mi Calm Calm - 0.00 in   Partly Cloudy
5:15 AM 48.2 °F 39.2 °F 71% 30.22 in 10.0 mi Calm Calm - 0.00 in   Clear
5:35 AM 50.0 °F 39.2 °F 66% 30.22 in 10.0 mi Calm Calm - 0.00 in   Mostly Cloudy
5:55 AM 48.2 °F 39.2 °F 71% 30.22 in 10.0 mi Calm Calm - 0.00 in   Scattered Clouds
6:15 AM 48.2 °F 41.0 °F 76% 30.21 in 10.0 mi ENE 3.5 mph - 0.00 in   Partly Cloudy
6:35 AM 48.2 °F 39.2 °F 71% 30.21 in 10.0 mi NE 5.8 mph - 0.00 in   Scattered Clouds
6:55 AM 48.2 °F 39.2 °F 71% 30.21 in 10.0 mi ENE 4.6 mph - 0.00 in   Partly Cloudy
7:15 AM 48.2 °F 39.2 °F 71% 30.21 in 10.0 mi ENE 4.6 mph - 0.00 in   Partly Cloudy
7:35 AM 48.2 °F 39.2 °F 71% 30.22 in 10.0 mi ENE 3.5 mph - 0.00 in   Scattered Clouds
7:55 AM 48.2 °F 39.2 °F 71% 30.22 in 10.0 mi ENE 3.5 mph - 0.00 in   Partly Cloudy
8:15 AM 50.0 °F 41.0 °F 71% 30.23 in 10.0 mi NNE 8.1 mph - 0.00 in   Partly Cloudy
8:35 AM 51.8 °F 39.2 °F 62% 30.23 in 10.0 mi ENE 9.2 mph - 0.00 in   Partly Cloudy
8:55 AM 51.8 °F 41.0 °F 67% 30.23 in 9.0 mi ENE 6.9 mph - 0.00 in   Clear
9:15 AM 51.8 °F 42.8 °F 71% 30.22 in 10.0 mi ENE 10.4 mph - 0.00 in   Partly Cloudy
9:35 AM 53.6 °F 42.8 °F 67% 30.22 in 10.0 mi ENE 8.1 mph - 0.00 in   Partly Cloudy
9:55 AM 53.6 °F 44.6 °F 72% 30.21 in 10.0 mi ENE 9.2 mph - 0.00 in   Partly Cloudy
10:15 AM 53.6 °F 44.6 °F 72% 30.21 in 10.0 mi ENE 6.9 mph - 0.00 in   Scattered Clouds
10:35 AM 55.4 °F 44.6 °F 67% 30.21 in 10.0 mi ENE 6.9 mph - 0.00 in   Partly Cloudy
10:55 AM 57.2 °F 44.6 °F 63% 30.21 in 10.0 mi ENE 5.8 mph - 0.00 in   Clear
11:15 AM 57.2 °F 44.6 °F 63% 30.21 in 10.0 mi NE 4.6 mph - 0.00 in   Clear
11:35 AM 59.0 °F 42.8 °F 55% 30.20 in 10.0 mi East 4.6 mph - 0.00 in   Clear
11:55 AM 60.8 °F 42.8 °F 52% 30.20 in 10.0 mi East 6.9 mph - 0.00 in   Clear
12:15 PM 60.8 °F 42.8 °F 52% 30.19 in 10.0 mi SSW 3.5 mph - 0.00 in   Clear
12:35 PM 60.8 °F 42.8 °F 52% 30.19 in 10.0 mi SE 4.6 mph - 0.00 in   Partly Cloudy
12:55 PM 60.8 °F 44.6 °F 55% 30.18 in 10.0 mi NNE 3.5 mph - 0.00 in   Clear
1:15 PM 62.6 °F 44.6 °F 52% 30.17 in 10.0 mi ENE 6.9 mph - 0.00 in   Clear
1:35 PM 64.4 °F 42.8 °F 45% 30.16 in 10.0 mi Calm Calm - 0.00 in   Clear
1:55 PM 64.4 °F 44.6 °F 49% 30.15 in 10.0 mi ENE 3.5 mph - 0.00 in   Scattered Clouds
2:15 PM 64.4 °F 42.8 °F 45% 30.14 in 10.0 mi East 5.8 mph - 0.00 in   Partly Cloudy
2:35 PM 66.2 °F 44.6 °F 46% 30.13 in 10.0 mi Calm Calm - 0.00 in   Partly Cloudy
2:55 PM 66.2 °F 44.6 °F 46% 30.13 in 10.0 mi North 4.6 mph - 0.00 in   Clear
3:15 PM 68.0 °F 42.8 °F 40% 30.12 in 10.0 mi WNW 4.6 mph - 0.00 in   Clear
3:35 PM 66.2 °F 42.8 °F 43% 30.12 in 10.0 mi SW 3.5 mph - 0.00 in   Clear
3:55 PM 66.2 °F 42.8 °F 43% 30.11 in 10.0 mi SSW 4.6 mph - 0.00 in   Scattered Clouds
4:15 PM 68.0 °F 42.8 °F 40% 30.10 in 10.0 mi Calm Calm - 0.00 in   Partly Cloudy
4:35 PM 68.0 °F 42.8 °F 40% 30.10 in 10.0 mi South 3.5 mph - 0.00 in   Scattered Clouds
4:55 PM 68.0 °F 42.8 °F 40% 30.09 in 10.0 mi South 3.5 mph - 0.00 in   Scattered Clouds
5:15 PM 68.0 °F 42.8 °F 40% 30.09 in 10.0 mi South 3.5 mph - 0.00 in   Scattered Clouds
5:35 PM 69.8 °F 42.8 °F 38% 30.09 in 10.0 mi SSE 3.5 mph - 0.00 in   Mostly Cloudy
5:55 PM 68.0 °F 42.8 °F 40% 30.08 in 10.0 mi Calm Calm - 0.00 in   Mostly Cloudy
6:15 PM 68.0 °F 42.8 °F 40% 30.08 in 10.0 mi SE 3.5 mph - 0.00 in   Partly Cloudy
6:35 PM 69.8 °F 41.0 °F 35% 30.08 in 10.0 mi WSW 3.5 mph - 0.00 in   Clear
6:55 PM 68.0 °F 42.8 °F 40% 30.09 in 10.0 mi WNW 5.8 mph - 0.00 in   Clear
7:15 PM 66.2 °F 44.6 °F 46% 30.09 in 10.0 mi NE 3.5 mph - 0.00 in   Clear
7:35 PM 64.4 °F 44.6 °F 49% 30.09 in 10.0 mi NE 3.5 mph - 0.00 in   Clear
7:55 PM 62.6 °F 46.4 °F 55% 30.09 in 10.0 mi ENE 4.6 mph - 0.00 in   Clear
8:15 PM 60.8 °F 46.4 °F 59% 30.09 in 10.0 mi East 3.5 mph - 0.00 in   Clear
8:35 PM 60.8 °F 46.4 °F 59% 30.09 in 10.0 mi East 3.5 mph - 0.00 in   Clear
8:55 PM 59.0 °F 46.4 °F 63% 30.09 in 10.0 mi East 3.5 mph - 0.00 in   Clear
9:15 PM 57.2 °F 46.4 °F 67% 30.09 in 10.0 mi ENE 3.5 mph - 0.00 in   Clear
9:35 PM 57.2 °F 46.4 °F 67% 30.10 in 10.0 mi East 3.5 mph - 0.00 in   Clear
9:55 PM 55.4 °F 46.4 °F 72% 30.10 in 10.0 mi ENE 3.5 mph - 0.00 in   Clear
10:15 PM 55.4 °F 46.4 °F 72% 30.09 in 10.0 mi ENE 4.6 mph - 0.00 in   Clear
10:35 PM 57.2 °F 46.4 °F 67% 30.10 in 10.0 mi East 6.9 mph - 0.00 in   Clear
10:55 PM 55.4 °F 48.2 °F 77% 30.10 in 10.0 mi East 6.9 mph - 0.00 in   Clear
11:35 PM 55.4 °F 48.2 °F 77% 30.10 in 10.0 mi East 5.8 mph - 0.00 in   Clear
11:55 PM 55.4 °F 48.2 °F 77% 30.09 in 10.0 mi East 3.5 mph - 0.00 in   Clear